#timestamp,LO_Frequency,Hit,StdDev 
1540616415.2,286047002.2,N
1540616435.1,286047006.0,Y
1540616436.0,286047006.0,P
1540616455.8,286047003.6,N
1540616475.7,286047004.1,N
1540616495.5,286047001.9,N
1540616515.3,286047002.7,N
1540616535.2,286047001.1,N
1540616555.0,286046998.2,N
1540616555.9,286046998.2,N
1540616575.8,286046998.3,N
1540616595.6,286046997.4,N
1540616615.4,286046999.1,N
1540616635.3,286046997.7,N
1540616655.1,286046996.1,N
1540616656.0,286046996.1,N
1540616675.8,286046996.1,N
1540616695.7,286046995.4,N
1540616715.5,286046995.6,N
1540616735.3,286046999.2,N
1540616755.2,286046996.8,N
1540616775.0,286046997.0,N
1540616775.9,286046997.0,N
1540616795.8,286046998.9,N
1540616815.6,286047000.5,N
1540616835.4,286046999.3,N
1540616855.3,286046997.4,N
1540616875.1,286046997.7,N
1540616895.8,286046995.3,N
1540616915.7,286046996.2,N
1540616935.5,286046995.6,N
1540616955.4,286046995.7,N
1540616975.2,286046997.5,N
1540616995.0,286046995.2,N
1540616995.9,286046995.2,N
1540617015.8,286046995.0,N
1540617035.6,286046997.9,N
1540617055.4,286046997.2,N
1540617075.3,286046998.9,N
1540617095.1,286046996.9,N
1540617115.9,286046996.7,N
1540617135.7,286046999.4,N
1540617155.5,286046995.6,N
1540617175.4,286046994.5,Y
1540617195.2,286046998.4,P
1540617215.0,286047000.5,N
1540617216.0,286047000.5,N
1540617235.8,286046998.6,N
1540617255.6,286046996.7,N
1540617275.5,286046996.5,N
1540617295.3,286046999.3,N
1540617315.1,286047001.2,N
1540617335.9,286046999.0,N
1540617355.7,286046999.1,N
1540617375.5,286046995.5,N
1540617395.4,286046997.9,N
1540617415.2,286046995.3,N
1540617435.1,286046996.8,N
1540617436.0,286046996.8,N
1540617455.8,286046997.0,N
1540617475.6,286046997.0,N
1540617495.5,286046996.0,N
1540617515.3,286046994.5,Y
1540617535.1,286046998.8,P
1540617555.9,286047000.8,N
1540617575.7,286047000.9,N
1540617595.6,286047000.7,N
1540617615.4,286047001.2,N
1540617635.2,286047000.3,N
1540617655.1,286047002.5,N
1540617656.0,286047002.5,N
1540617675.8,286047002.4,N
1540617695.6,286046998.1,N
1540617715.5,286046999.0,N
1540617735.3,286046999.0,N
1540617755.2,286046998.3,N
1540617775.9,286046998.5,N
1540617795.7,286046994.9,Y
1540617815.6,286046996.7,P
1540617835.4,286046999.0,N
1540617855.2,286046997.6,N
1540617875.1,286046994.9,Y
1540617876.0,286046994.9,P
1540617895.8,286046998.3,N
1540617915.7,286046998.2,N
1540617935.5,286047000.1,N
1540617955.3,286047002.8,N
1540617975.2,286046998.1,N
1540617995.0,286047000.6,N
1540617995.9,286047000.6,N
1540618015.8,286046998.1,N
1540618035.6,286046998.8,N
1540618055.4,286046998.2,N
1540618075.3,286047000.2,N
1540618095.1,286047000.8,N
1540618115.8,286047001.0,N
1540618135.7,286047002.0,N
1540618155.5,286047001.4,N
1540618175.4,286047004.3,N
1540618195.2,286047002.5,N
1540618215.0,286046999.7,N
1540618215.9,286046999.7,N
1540618235.8,286047002.1,N
1540618255.6,286047002.2,N
1540618275.4,286047001.9,N
1540618295.3,286047003.0,N
1540618315.1,286047001.4,N
1540618335.9,286047003.2,N
1540618355.7,286047004.1,N
1540618375.5,286047002.2,N
1540618395.4,286047001.8,N
1540618415.2,286047003.3,N
1540618435.0,286047004.2,N
1540618435.9,286047004.2,N
1540618455.8,286047004.0,N
1540618475.6,286047005.8,Y
1540618495.5,286047003.6,P
1540618515.3,286047003.4,P
1540618535.1,286047005.5,P
1540618555.9,286047004.4,Y
1540618575.7,286046999.6,P
1540618595.6,286046998.9,N
1540618615.4,286046997.3,N
1540618635.2,286046999.4,N
1540618655.1,286046997.6,N
1540618656.0,286046997.6,N
1540618675.8,286046998.3,N
1540618695.6,286046998.1,N
1540618715.5,286047001.1,N
1540618735.3,286046999.2,N
1540618755.2,286046998.4,N
1540618775.9,286047000.6,N
1540618795.7,286047000.0,N
1540618815.6,286047002.2,N
1540618835.4,286047002.7,N
1540618855.2,286046999.7,N
1540618875.1,286047002.8,N
1540618876.0,286047002.8,N
1540618895.8,286047002.2,N
1540618915.7,286047001.5,N
1540618935.5,286047002.2,N
1540618955.3,286047000.4,N
1540618975.2,286046998.3,N
1540618995.0,286047000.8,N
1540618995.9,286047000.8,N
1540619015.8,286047000.1,N
1540619035.6,286047001.8,N
1540619055.4,286047002.4,N
1540619075.3,286046998.4,N
1540619095.1,286046996.5,N
1540619115.8,286046996.7,N
1540619135.7,286046998.0,N
1540619155.5,286046995.4,N
1540619175.4,286046997.7,N
1540619195.2,286046998.9,N
1540619215.0,286046999.1,N
1540619215.9,286046999.1,N
1540619235.8,286046998.9,N
1540619255.6,286046999.5,N
1540619275.4,286046998.8,N
1540619295.3,286046998.3,N
1540619315.1,286046998.3,N
1540619335.9,286046998.5,N
1540619355.7,286046996.7,N
1540619375.5,286046999.3,N
1540619395.4,286046996.6,N
1540619415.2,286046995.3,N
1540619435.0,286046997.3,N
1540619436.0,286046997.3,N
1540619455.8,286046997.9,N
1540619475.6,286046999.3,N
1540619495.5,286046997.0,N
1540619515.3,286046998.1,N
1540619535.1,286046998.2,N
1540619555.9,286046998.9,N
1540619575.7,286046998.7,N
1540619595.5,286047000.7,N
1540619615.4,286046998.2,N
1540619635.2,286047000.5,N
1540619655.1,286047002.6,N
1540619656.0,286047002.6,N
1540619675.8,286047004.3,N
1540619695.6,286047002.2,N
1540619715.5,286047004.0,N
1540619735.3,286047000.3,N
1540619755.1,286047000.7,N
1540619775.9,286047001.2,N
1540619795.7,286046998.5,N
1540619815.6,286046998.2,N
1540619835.4,286046999.3,N
1540619855.2,286046996.7,N
1540619875.1,286046997.3,N
1540619876.0,286046997.3,N
1540619895.8,286046998.0,N
1540619915.6,286046999.1,N
1540619935.5,286046996.6,N
1540619955.3,286047000.8,N
1540619975.2,286047000.5,N
1540619995.9,286046997.0,N
